{"data":{"norad_id":48643,"intl_designator":"2021-044F","name":"STARLINK-2704","alt_names":[],"object_type":"PAYLOAD","status":"ACTIVE","operator":null,"country":"US","launch_date":"2021-05-26","launch_site_code":"AFETR","launch_vehicle":null,"mission":null,"orbit_class":"UNKNOWN","rcs_meters":null,"size_class":null,"mass_kg":null,"dimensions":null,"purposes":["comms"],"wikipedia_slug":null,"has_3d_model":false,"image_url":null,"decayed_at":null,"tle_current":{"epoch":"2026-09-19T19:24:31.508064Z","epoch_age_seconds":96828,"freshness":"FRESH","line1":"1 48643U 21044F   26262.80869801 -.00000092  00000+0  88099-5 0  9994","line2":"2 48643  53.1587 290.4741 0001215  93.6391 266.4749 15.31693279293573","mean_motion":15.31693279,"eccentricity":0.0001215,"inclination_deg":53.1587,"raan_deg":290.4741,"arg_perigee_deg":93.6391,"mean_anomaly_deg":266.4749,"bstar":8.8099e-6,"rev_number":29357,"period_min":94.013600486655,"perigee_km":469.927889261,"apogee_km":471.59217123935,"semimajor_km":6848.8970302502,"source":"CELESTRAK","updated_at":"2026-09-20T09:00:39.140539Z"}}}